TimeEST,TemperatureF,Dew PointF,Humidity,Sea Level PressureIn,VisibilityMPH,Wind Direction,Wind SpeedMPH,Gust SpeedMPH,PrecipitationIn,Events,Conditions,WindDirDegrees,DateUTC
12:53 AM,66.0,59.0,78,30.16,10.0,NNE,5.8,-,N/A,,Clear,20,2013-03-09 05:53:00
1:53 AM,66.0,59.0,78,30.15,10.0,NNE,6.9,-,N/A,,Clear,20,2013-03-09 06:53:00
2:53 AM,66.0,60.1,81,30.13,10.0,NNE,4.6,-,N/A,,Clear,30,2013-03-09 07:53:00
3:53 AM,66.0,60.1,81,30.12,10.0,NNE,6.9,-,N/A,,Clear,30,2013-03-09 08:53:00
4:53 AM,64.9,59.0,81,30.13,10.0,NNE,5.8,-,N/A,,Clear,30,2013-03-09 09:53:00
5:53 AM,64.9,57.0,75,30.13,10.0,NNE,8.1,-,N/A,,Clear,30,2013-03-09 10:53:00
6:53 AM,64.9,55.9,73,30.14,10.0,NE,5.8,-,N/A,,Clear,40,2013-03-09 11:53:00
7:53 AM,68.0,55.9,65,30.17,10.0,ENE,5.8,-,N/A,,Clear,60,2013-03-09 12:53:00
8:53 AM,70.0,55.9,61,30.18,10.0,NE,8.1,-,N/A,,Clear,40,2013-03-09 13:53:00
9:53 AM,72.0,55.0,55,30.18,10.0,NE,10.4,-,N/A,,Clear,50,2013-03-09 14:53:00
10:53 AM,73.9,54.0,50,30.18,10.0,ENE,10.4,16.1,N/A,,Clear,70,2013-03-09 15:53:00
11:53 AM,73.9,50.0,43,30.18,10.0,NNE,13.8,-,N/A,,Clear,20,2013-03-09 16:53:00
12:53 PM,72.0,45.0,38,30.16,10.0,NNE,12.7,-,N/A,,Clear,30,2013-03-09 17:53:00
1:53 PM,75.9,55.9,50,30.13,10.0,NE,11.5,-,N/A,,Clear,40,2013-03-09 18:53:00
2:53 PM,75.9,59.0,56,30.12,10.0,East,11.5,-,N/A,,Clear,100,2013-03-09 19:53:00
3:53 PM,75.0,59.0,57,30.11,10.0,East,15.0,-,N/A,,Clear,100,2013-03-09 20:53:00
4:53 PM,73.9,61.0,64,30.10,10.0,East,12.7,-,N/A,,Clear,100,2013-03-09 21:53:00
5:53 PM,73.0,61.0,66,30.12,10.0,East,13.8,-,N/A,,Clear,90,2013-03-09 22:53:00
6:53 PM,71.1,60.1,68,30.13,10.0,East,6.9,-,N/A,,Clear,80,2013-03-09 23:53:00
7:53 PM,71.1,60.1,68,30.14,10.0,East,8.1,-,N/A,,Mostly Cloudy,80,2013-03-10 00:53:00
8:53 PM,70.0,60.1,71,30.16,10.0,ENE,6.9,-,N/A,,Mostly Cloudy,70,2013-03-10 01:53:00
9:53 PM,69.1,59.0,70,30.17,10.0,ENE,12.7,19.6,N/A,,Clear,60,2013-03-10 02:53:00
10:53 PM,69.1,59.0,70,30.16,10.0,ENE,9.2,17.3,N/A,,Clear,70,2013-03-10 03:53:00
11:53 PM,68.0,57.9,70,30.16,10.0,ENE,8.1,-,N/A,,Partly Cloudy,70,2013-03-10 04:53:00